sat.trackr.live / text

‹ back to catalog

YUNHAI-2 02F

NORAD 59285 · 2024-052F

PAYLOAD ACTIVE UNKNOWN

§ Identity

Operator
Country
PRC
Launch date
2024-03-21
Launch site
JSC
Launch vehicle
Mass (kg)
RCS (m²)

External: N2YO · Heavens-Above · Gunter

§ Orbital elements

Epoch: 2026-09-22T21:56:17.179872Z

Period
100.84 min
Inclination
50.0110°
Eccentricity
0.0005048
Mean motion
14.28018096 rev/d
Perigee alt
794.7 km
Apogee alt
802.0 km
Semi-major
7,176.5 km
B*
6.5976e-5
RAAN
148.8068°
Arg perigee
160.9745°
Mean anomaly
199.1359°
Rev number
13,312

§ Raw data

YUNHAI-2 02F1 59285U 24052F   26265.91408773  .00000004  00000+0  65976-4 0  99922 59285  50.0110 148.8068 0005048 160.9745 199.1359 14.28018096133128

JSON: /api/v1/satellites/59285 · /tle

For live sub-satellite position, see the globe view (requires WebGL).

§ Visibility from observer

Set your observer location to see the next 7 days of passes ≥ 10°. The values pass through the URL so the page stays shareable.

No JS? Fill the form by hand. The geolocation button needs JavaScript.